Regional Weather Roundup
Issued by NWS

Home | Current Version | Previous Version | Text Only | Print | Product List | Glossary On
Versions: 1 2 3 4 5 6 7 8 9 10 11 12 13 14 15 16 17 18 19 20 21 22 23 24 25 26 27 28 29 30 31 32 33 34 35 36 37 38 39 40 41 42 43 44 45 46 47 48 49 50
000
ASUS45 KBOU 020507
RWRCO

WEATHER ROUNDUP FOR COLORADO
NATIONAL WEATHER SERVICE DENVER/BOULDER CO
1100 PM MDT WED APR 01 2015

NOTE: "FAIR" INDICATES FEW OR NO CLOUDS BELOW 12000 FEET WITH NO
SIGNIFICANT WEATHER AND/OR OBSTRUCTIONS TO VISIBILITY.

COZ001>005-013-030-031-020600-
...NORTHWEST COLORADO...

CITY           SKY/WX    TMP DP  RH WIND       PRES   REMARKS
CRAIG          CLOUDY    38   8  29 SW8       29.97R
HAYDEN         CLOUDY    37   5  25 W6        29.96R
MEEKER         CLOUDY    43   4  19 VRB6      29.96R
MOUNT WERNER   NOT AVBL
STEAMBOAT SPGS CLOUDY    37  10  32 CALM      29.95R
WALDEN         MOCLDY    32   3  29 N12       29.95R WCI  23
$$

COZ006>008-011-020600-
...WEST CENTRAL VALLEYS...

CITY           SKY/WX    TMP DP  RH WIND       PRES   REMARKS
GRAND JUNCTION CLOUDY    47   6  18 NW5       29.85S
MONTROSE       CLOUDY    48  22  35 SE7       29.89F
EAGLE          CLEAR     41  21  45 E8        29.93S
RIFLE          CLOUDY    49   1  14 NW3       29.90R
DELTA          CLOUDY    57   6  13 SW14      29.85S
NUCLA          CLOUDY    46  19  34 E9        29.92S
$$

COZ017>023-064>068-020600-
...SOUTHWEST COLORADO...

CITY           SKY/WX    TMP DP  RH WIND       PRES   REMARKS
DURANGO        PTCLDY    46  23  40 N7        29.93S
CORTEZ         CLEAR     45  16  31 E8        29.89F
PAGOSA SPRINGS PTCLDY    40  20  45 CALM      29.97S
TELLURIDE      NOT AVBL
WOLF CREEK PAS MOCLDY    28   9  43 SW17      30.13F WCI  16
$$

COZ009-010-012-014-032>034-037-058>063-020600-
...CENTRAL COLORADO...

CITY           SKY/WX    TMP DP  RH WIND       PRES   REMARKS
ASPEN          CLOUDY    37  25  61 S6        29.93F
BUENA VISTA    MOCLDY    40  26  57 W5        29.95F
COPPER MTN     MOCLDY    32   9  37 SW13G18   30.06F WCI  22
BERTHOUD PASS  FAIR      23  16  74 W22       30.07R WCI   8
COTTONWOOD PAS MOCLDY    37  18  44 W18G28    30.00S
GUNNISON       CLOUDY    36  27  69 CALM      30.00S
KREMMLING      MOCLDY    34  14  44 N7        29.94S WCI  28
LEADVILLE      MOCLDY    29  19  66 E7        29.99F WCI  22
SALIDA         MOCLDY    42  28  58 CALM      30.02S
SUNLIGHT       CLOUDY    32   3  29 W5        30.05F WCI  27
WILKERSON PASS PTCLDY    30  18  59 W8        30.06S WCI  23
$$

COZ069>075-020600-
...SAN LUIS VALLEY/SANGRE DE CRISTO MOUNTAINS...

CITY           SKY/WX    TMP DP  RH WIND       PRES   REMARKS
ALAMOSA        MOCLDY    41  21  44 NE6       29.95F
LA VETA PASS   CLEAR     37  18  44 S10G20    30.03R
SAGUACHE       MOCLDY    43  23  45 NW14      29.97S
$$

COZ035-036-038>040-020600-
...NORTHERN COLORADO FRONT RANGE...

CITY           SKY/WX    TMP DP  RH WIND       PRES   REMARKS
DENVER INTL AP CLOUDY    41  38  89 E8        29.90R
DMNS CITY PARK   N/A     48  38  69 NE5       29.92R
AURORA         PTCLDY    42  39  91 SE5       29.91R
FRONT RANGE AP NOT AVBL
ERIE MUNI ARPT LGT RAIN  49  38  68 CALM      29.92R
BOULDER MUN AP MOCLDY    48  32  53 N7        29.93R
CENTENNIAL     PTCLDY    44  37  76 NE6       29.91R
BROOMFIELD     NOT AVBL
FORT COLLINS   CLOUDY    45  27  49 NE14      29.93R
LONGMONT       CLOUDY    49  32  51 N8        29.95R
$$

COZ041-046-047-076>085-087-088-020600-
...PIKES PEAK/PALMER DIVIDE AND SOUTHERN FOOTHILLS...

CITY           SKY/WX    TMP DP  RH WIND       PRES   REMARKS
COLO. SPRINGS  PTCLDY    45  30  55 CALM      29.88R
A. F. ACADEMY  CLEAR     52  19  27 W7        29.87S
ELLICOTT       NOT AVBL
FALCON         CLEAR     40  35  81 NE10      29.92R
FORT CARSON    CLEAR     44  34  69 SE10      29.86R
LIMON          CLEAR     39  37  92 NW6       29.87R
MONUMENT HILL  CLEAR     36  34  93 CALM      29.91R
TRINIDAD       CLEAR     49  21  33 S5        29.88R
$$

COZ042>045-048>051-090-091-020600-
...NORTHEAST COLORADO...

CITY           SKY/WX    TMP DP  RH WIND       PRES   REMARKS
GREELEY ARPT   MOCLDY    45  25  45 NE16      29.90S
AKRON          MOCLDY    42  37  82 N12       29.87R
BURLINGTON     CLOUDY    47  41  80 NE12      29.79F
WRAY           CLOUDY    49  43  78 N15       29.82R
STERLING       PTCLDY    41  32  70 N5        29.86R
HOLYOKE        CLOUDY    46  36  66 N13       29.84R
FORT MORGAN    MOCLDY    41  31  67 N14       29.89R
$$

COZ086-089-092>099-020600-
...SOUTHEAST COLORADO...

CITY           SKY/WX    TMP DP  RH WIND       PRES   REMARKS
PUEBLO         CLEAR     51  37  58 NE7       29.84R
LA JUNTA       CLEAR     53  39  59 MISG      29.80R
LAMAR          PTCLDY    55  39  54 NE14G26   29.76R
SPRINGFIELD      N/A     56  37  49 N24G32    29.79R
$$


USA.gov is the U.S. government's official web portal to all federal, state and local government web resources and services.